Zurück zum Katalog

STARLINK-6097

AktivKommunikationVLEO
NORAD 57105·PAYLOAD·🇺🇸 United States

Gestartet Jun 23, 2023 von Cape Canaveral Space Force Station

Loading…

Nächste Überflüge (nächste 24 Stunden)

TLE

AktuellSource: CelesTrak SupGP

Epoche: Sep 14, 2026, 22:30 UTC

1 57105C 23090E   26257.93798611  .00017085  00000+0  61889-3 0  2570
2 57105  43.0013 292.9825 0001046 281.2144  60.4224 15.27566637    18

Verfolge STARLINK-6097 in Echtzeit mit AllMySat

Download on the App Store